CW1020 Weather Reports


time (UTC)temp
C
wind
direction
speed
KPH
gust
KPH
rain 1hr
cm
rain 24hr
cm
rain mn
cm
humidity
%
barometer
mb
20260503043003 18 124 3.2 4.8 0.00 0.00 0.00 27 1014.0
20260503042003 18 160 3.2 6.4 0.00 0.00 0.00 25 1013.8
20260503041503 18 195 3.2 9.7 0.00 0.00 0.00 26 1013.7
20260503040503 18 186 3.2 9.7 0.00 0.00 0.00 26 1013.7
20260503040005 18 127 4.8 4.8 0.00 0.00 0.00 27 1013.6
20260503035503 18 153 6.4 12.9 0.00 0.00 0.00 26 1013.5
20260503035003 18 181 6.4 14.5 0.00 0.00 0.00 26 1013.5
20260503034504 18 154 6.4 12.9 0.00 0.00 0.00 26 1013.3
20260503034003 18 185 6.4 9.7 0.00 0.00 0.00 27 1013.2
20260503033004 19 172 9.7 19.3 0.00 0.00 0.00 26 1013.1
20260503032503 20 175 11.3 17.7 0.00 0.00 0.00 26 1013.0
20260503032003 20 181 11.3 19.3 0.00 0.00 0.00 26 1013.1
20260503031504 20 174 9.7 24.1 0.00 0.00 0.00 26 1013.1
20260503031004 20 163 9.7 20.9 0.00 0.00 0.00 26 1013.1
20260503030504 20 167 11.3 17.7 0.00 0.00 0.00 26 1013.1
20260503024503 21 177 12.9 16.1 0.00 0.00 0.00 24 1012.9
20260503024003 21 177 12.9 27.4 0.00 0.00 0.00 24 1012.9
20260503023505 21 178 11.3 22.5 0.00 0.00 0.00 23 1012.8
20260503023004 21 182 11.3 17.7 0.00 0.00 0.00 23 1012.9
20260503022503 21 167 12.9 27.4 0.00 0.00 0.00 23 1012.8
20260503022004 22 179 9.7 20.9 0.00 0.00 0.00 23 1012.9
20260503021504 22 186 8.0 22.5 0.00 0.00 0.00 23 1013.0
20260503021003 22 186 9.7 12.9 0.00 0.00 0.00 23 1013.1
20260503020504 22 170 12.9 12.9 0.00 0.00 0.00 22 1013.0
20260503020004 22 153 12.9 24.1 0.00 0.00 0.00 22 1013.1
20260503015503 22 159 9.7 20.9 0.00 0.00 0.00 22 1013.3
20260503015003 23 173 9.7 22.5 0.00 0.00 0.00 22 1013.2
20260503014003 23 160 11.3 19.3 0.00 0.00 0.00 22 1013.2
20260503013004 23 150 9.7 27.4 0.00 0.00 0.00 23 1013.3
20260503012003 23 193 11.3 19.3 0.00 0.00 0.00 24 1013.3
20260503011503 23 168 11.3 17.7 0.00 0.00 0.00 24 1013.2
20260503011004 23 189 9.7 24.1 0.00 0.00 0.00 25 1013.3
20260503010504 23 178 9.7 16.1 0.00 0.00 0.00 24 1013.2
20260503005504 23 173 12.9 16.1 0.00 0.00 0.00 24 1013.3
20260503005005 24 189 12.9 20.9 0.00 0.00 0.00 24 1013.3
20260503004003 24 155 14.5 22.5 0.00 0.00 0.00 24 1013.4
20260503002504 24 171 12.9 20.9 0.00 0.00 0.00 23 1013.2
20260503002004 24 147 14.5 25.7 0.00 0.00 0.00 24 1013.2
20260503001504 24 144 16.1 19.3 0.00 0.00 0.00 23 1013.3
20260503001004 24 153 12.9 30.6 0.00 0.00 0.00 24 1013.4
20260503000504 24 125 12.9 22.5 0.00 0.00 0.00 23 1013.3
20260502235003 25 153 16.1 20.9 0.00 0.00 0.00 24 1013.4
20260502234504 25 158 17.7 22.5 0.00 0.00 0.00 24 1013.4
20260502233504 25 148 16.1 27.4 0.00 0.00 0.00 24 1013.3
20260502233003 25 139 14.5 25.7 0.00 0.00 0.00 24 1013.3
20260502232003 25 134 12.9 17.7 0.00 0.00 0.00 23 1013.4
20260502231504 25 154 14.5 19.3 0.00 0.00 0.00 24 1013.5
20260502230504 25 168 8.0 33.8 0.00 0.00 0.00 23 1013.5
20260502230004 28 158 9.7 16.1 0.00 0.00 0.00 19 1013.4
20260502225003 27 182 11.3 38.6 0.00 0.00 0.00 20 1013.5
20260502224505 27 185 6.4 27.4 0.00 0.00 0.00 21 1013.8
20260502224004 26 145 6.4 17.7 0.00 0.00 0.00 20 1013.9
20260502223503 26 225 8.0 11.3 0.00 0.00 0.00 20 1014.1
20260502223003 26 96 9.7 14.5 0.00 0.00 0.00 19 1014.2
20260502222504 26 73 12.9 20.9 0.00 0.00 0.00 18 1014.2
20260502222004 26 96 14.5 22.5 0.00 0.00 0.00 18 1014.4
20260502221504 26 104 11.3 24.1 0.00 0.00 0.00 17 1014.4
20260502221003 27 111 9.7 17.7 0.00 0.00 0.00 18 1014.5
20260502220503 27 126 16.1 11.3 0.00 0.00 0.00 18 1014.6
20260502220003 27 109 16.1 27.4 0.00 0.00 0.00 18 1014.6
20260502215503 26 113 12.9 24.1 0.00 0.00 0.00 18 1014.8
20260502215003 26 99 14.5 24.1 0.00 0.00 0.00 18 1014.9
20260502214504 26 81 17.7 22.5 0.00 0.00 0.00 18 1014.9
20260502213504 26 114 17.7 33.8 0.00 0.00 0.00 18 1015.1
20260502213003 26 87 19.3 22.5 0.00 0.00 0.00 18 1015.1
20260502212505 26 106 14.5 33.8 0.00 0.00 0.00 18 1015.1
20260502212004 26 90 14.5 24.1 0.00 0.00 0.00 18 1015.3
20260502211505 26 96 17.7 25.7 0.00 0.00 0.00 18 1015.4
20260502211003 26 114 17.7 40.2 0.00 0.00 0.00 19 1015.5
20260502210503 26 101 19.3 27.4 0.00 0.00 0.00 18 1015.5
20260502210002 26 106 17.7 38.6 0.00 0.00 0.00 19 1015.7
20260502205503 26 95 16.1 32.2 0.00 0.00 0.00 19 1015.5
20260502205002 26 90 17.7 33.8 0.00 0.00 0.00 19 1015.5
20260502204503 26 101 17.7 43.5 0.00 0.00 0.00 20 1015.5
20260502204002 25 85 17.7 29.0 0.00 0.00 0.00 19 1015.5
20260502203502 26 81 14.5 30.6 0.00 0.00 0.00 19 1015.7
20260502203002 26 98 14.5 25.7 0.00 0.00 0.00 20 1015.7
20260502202503 25 106 19.3 19.3 0.00 0.00 0.00 20 1015.8
20260502202002 26 94 17.7 29.0 0.00 0.00 0.00 20 1015.8
20260502201503 26 74 14.5 27.4 0.00 0.00 0.00 19 1015.9
20260502200502 26 104 14.5 32.2 0.00 0.00 0.00 19 1016.0
20260502200002 26 106 14.5 20.9 0.00 0.00 0.00 20 1016.1
20260502195503 26 99 12.9 24.1 0.00 0.00 0.00 19 1016.2
20260502195003 25 110 16.1 19.3 0.00 0.00 0.00 20 1016.3
20260502194502 25 107 17.7 25.7 0.00 0.00 0.00 20 1016.3
20260502193504 25 96 19.3 30.6 0.00 0.00 0.00 20 1016.5
20260502192503 25 115 19.3 24.1 0.00 0.00 0.00 20 1016.6
20260502192002 25 99 19.3 30.6 0.00 0.00 0.00 21 1016.6
20260502191502 25 97 17.7 30.6 0.00 0.00 0.00 21 1016.7
20260502191003 25 86 16.1 27.4 0.00 0.00 0.00 20 1016.8
20260502190502 25 109 17.7 27.4 0.00 0.00 0.00 21 1016.7
20260502190002 25 87 17.7 29.0 0.00 0.00 0.00 20 1016.8
20260502185503 25 100 16.1 29.0 0.00 0.00 0.00 20 1017.0
20260502185004 25 106 17.7 27.4 0.00 0.00 0.00 21 1016.9
20260502184003 25 97 17.7 30.6 0.00 0.00 0.00 21 1016.9
20260502183502 25 87 16.1 24.1 0.00 0.00 0.00 22 1016.9
20260502183003 25 76 16.1 29.0 0.00 0.00 0.00 21 1017.1
20260502182502 25 108 17.7 24.1 0.00 0.00 0.00 22 1017.0
20260502182002 24 117 17.7 32.2 0.00 0.00 0.00 22 1016.9
20260502181503 24 83 19.3 27.4 0.00 0.00 0.00 22 1017.1
20260502181002 24 104 20.9 33.8 0.00 0.00 0.00 22 1017.0
20260502180503 24 108 19.3 30.6 0.00 0.00 0.00 22 1017.0
20260502170502 23 107 16.1 25.7 0.00 0.00 0.00 27 1017.4
20260502164002 22 86 16.1 27.4 0.00 0.00 0.00 30 1017.0
20260502163503 22 94 16.1 29.0 0.00 0.00 0.00 31 1017.0
20260502163002 22 86 17.7 22.5 0.00 0.00 0.00 32 1017.0
20260502162502 22 90 16.1 25.7 0.00 0.00 0.00 32 1017.0
20260502162003 22 88 16.1 22.5 0.00 0.00 0.00 33 1017.1
20260502161503 22 89 14.5 25.7 0.00 0.00 0.00 34 1017.1
20260502160504 21 93 16.1 22.5 0.00 0.00 0.00 38 1017.1
20260502152002 17 62 4.8 8.0 0.00 0.00 0.00 52 1017.3
20260502151502 16 74 4.8 6.4 0.00 0.00 0.00 55 1017.4
20260502150502 15 78 1.6 9.7 0.00 0.00 0.00 60 1017.2
20260502123503 8 0 0.0 0.0 0.00 0.00 0.00 77 1016.2
20260502122503 8 143 1.6 6.4 0.00 0.00 0.00 77 1016.2
20260502122004 8 147 0.0 4.8 0.00 0.00 0.00 77 1016.1
20260502121503 8 0 0.0 0.0 0.00 0.00 0.00 78 1016.1
20260502121002 8 0 0.0 0.0 0.00 0.00 0.00 78 1016.1
20260502120503 8 0 0.0 0.0 0.00 0.00 0.00 78 1016.1
20260502115503 8 0 0.0 0.0 0.00 0.00 0.00 77 1016.2
20260502115003 8 0 0.0 0.0 0.00 0.00 0.00 77 1016.1
20260502114503 8 0 0.0 0.0 0.00 0.00 0.00 77 1016.1
20260502114002 8 0 0.0 0.0 0.00 0.00 0.00 77 1016.1
20260502113503 8 0 1.6 0.0 0.00 0.00 0.00 77 1016.3
20260502112502 8 137 1.6 1.6 0.00 0.00 0.00 77 1016.1
20260502112003 8 135 1.6 3.2 0.00 0.00 0.00 77 1016.2
20260502111503 8 137 1.6 3.2 0.00 0.00 0.00 77 1016.2
20260502110003 8 154 1.6 1.6 0.00 0.00 0.00 77 1016.4
20260502105003 8 137 0.0 4.8 0.00 0.00 0.00 77 1016.4
20260502104502 8 0 1.6 0.0 0.00 0.00 0.00 77 1016.4
20260502104003 8 135 1.6 11.3 0.00 0.00 0.00 77 1016.5
20260502103503 8 132 0.0 4.8 0.00 0.00 0.00 77 1016.4
20260502103003 8 149 0.0 3.2 0.00 0.00 0.00 77 1016.3
20260502102502 9 155 0.0 3.2 0.00 0.00 0.00 77 1016.3
20260502102002 9 150 0.0 6.4 0.00 0.00 0.00 77 1016.4
20260502101503 9 135 0.0 3.2 0.00 0.00 0.00 76 1016.4
20260502101003 9 0 0.0 0.0 0.00 0.00 0.00 75 1016.4
20260502100502 9 0 0.0 0.0 0.00 0.00 0.00 76 1016.4
20260502091003 10 119 1.6 14.5 0.00 0.00 0.00 73 1016.6
20260502070503 12 0 0.0 0.0 0.00 0.00 0.00 71 1017.1
20260502070006 12 0 0.0 0.0 0.00 0.00 0.00 71 1017.1
20260502065503 12 0 0.0 0.0 0.00 0.00 0.00 71 1017.2
20260502065003 12 0 0.0 0.0 0.00 0.00 0.00 70 1017.2
20260502064505 13 0 0.0 0.0 0.00 0.00 0.00 70 1017.2
20260502063002 13 0 0.0 0.0 0.00 0.00 0.00 69 1017.1
20260502062503 13 172 0.0 3.2 0.00 0.00 0.00 69 1017.2
20260502062003 13 0 0.0 0.0 0.00 0.00 0.00 68 1017.2
20260502061503 13 0 0.0 0.0 0.00 0.00 0.00 69 1017.2
20260502061003 13 0 0.0 0.0 0.00 0.00 0.00 68 1017.2
20260502060503 13 0 0.0 0.0 0.00 0.00 0.00 67 1017.1
20260502060003 14 0 0.0 0.0 0.00 0.00 0.00 66 1017.1
20260502055004 14 0 1.6 0.0 0.00 0.00 0.00 65 1017.2
20260502054504 14 190 1.6 3.2 0.00 0.00 0.00 65 1017.1
20260502054003 15 225 1.6 1.6 0.00 0.00 0.00 64 1017.1
20260502053503 15 205 1.6 3.2 0.00 0.00 0.00 64 1017.1
20260502052004 15 0 0.0 0.0 0.00 0.00 0.00 61 1017.3
20260502051003 16 0 0.0 0.0 0.00 0.00 0.00 60 1017.1
20260502050503 16 172 0.0 3.2 0.00 0.00 0.00 59 1017.1
20260502050003 16 173 1.6 3.2 0.00 0.00 0.00 59 1017.1
20260502045503 16 0 1.6 0.0 0.00 0.00 0.00 59 1017.1
20260502044504 16 160 4.8 3.2 0.00 0.00 0.00 58 1017.1
20260502044003 16 157 4.8 9.7 0.00 0.00 0.00 57 1017.0